Temp
-8 -8 -7 -6 -6 -6 -7 -8 -7 -7 -7 -7 -8 -7 -7 -7 -8 -8 -7 -7 -7 -7 -7 -8 -7 -7 -6 -7 -7 -7 -7 -6 -6 -6 -6 -5 -6 -6 -6 -7 -7 -8 -7
-8 -8 -8 -8 -8 -9 -9 -8 -8 -8 -7 -7 -7 -7 -7 -8 -8 -8 -8 -7 -8 -8 -8 -8 -8 -8 -7 -7 -6 -6 -6 -6 -7 -6 -6 -5 -6 -6 -6 -6 -6 -7 -8
-8 -8 -8 -8 -9 -9 -9 -8 -8 -7 -7 -7 -7 -7 -8 -8 -9 -8 -8 -8 -8 -7 -7 -7 -7 -7 -6 -7 -6 -6 -6 -6 -6 -6 -6 -6 -6 -6 -6 -6 -6 -6 -7
-9 -8 -8 -8 -9 -9 -9 -8 -8 -8 -7 -7 -7 -7 -8 -8 -9 -8 -7 -8 -7 -7 -7 -7 -7 -6 -6 -6 -6 -6 -6 -6 -7 -7 -7 -7 -6 -6 -6 -6 -6 -7 -6
-9 -8 -8 -8 -8 -8 -8 -8 -7 -7 -7 -7 -7 -7 -8 -8 -8 -7 -7 -7 -7 -7 -7 -8 -7 -9 -7 -7 -7 -8 -6 -6 -7 -7 -8 -8 -8 -7 -6 -7 -6 -7 -7
-9 -8 -7 -7 -7 -7 -7 -7 -7 -7 -7 -7 -7 -7 -8 -8 -8 -7 -7 -7 -5 -6 -6 -6 -7 -7 -6 -7 -6 -7 -6 -6 -7 -6 -8 -8 -8 -7 -7 -7 -7 -7 -7
-8 -8 -7 -7 -7 -7 -7 -7 -7 -7 -6 -7 -7 -7 -7 -7 -7 -7 -7 -7 -7 -7 -6 -6 -6 -6 -6 -6 -6 -6 -7 -6 -5 -5 -7 -7 -8 -8 -7 -8 -9 -8 -8
-8 -8 -7 -7 -7 -7 -6 -7 -7 -7 -7 -7 -7 -7 -7 -7 -7 -7 -7 -7 -7 -6 -6 -6 -6 -6 -6 -6 -6 -6 -6 -6 -7 -6 -6 -7 -7 -7 -8 -8 -8 -9 -8
-8 -8 -7 -7 -7 -7 -7 -7 -7 -7 -7 -7 -7 -7 -7 -7 -7 -7 -7 -7 -7 -6 -6 -6 -6 -6 -6 -6 -6 -6 -6 -6 -6 -6 -6 -7 -7 -8 -9 -10 -10 -9 -9
-9 -8 -8 -7 -6 -7 -7 -7 -7 -7 -7 -7 -7 -7 -7 -7 -7 -7 -7 -7 -7 -7 -7 -7 -6 -6 -6 -6 -6 -6 -7 -6 -7 -6 -6 -7 -8 -9 -9 -10 -11 -10 -10
-9 -9 -8 -7 -7 -7 -7 -7 -7 -7 -7 -7 -7 -6 -6 -7 -7 -7 -7 -7 -7 -7 -7 -6 -6 -6 -6 -6 -6 -7 -7 -7 -7 -8 -8 -8 -8 -9 -9 -9 -9 -9 -9
-9 -8 -8 -8 -7 -7 -7 -7 -7 -6 -6 -6 -6 -6 -6 -6 -6 -6 -6 -7 -7 -7 -7 -7 -7 -7 -7 -7 -7 -7 -7 -7 -7 -8 -8 -8 -9 -9 -9 -9 -8 -8 -8
-8 -8 -8 -8 -8 -7 -7 -7 -7 -6 -6 -6 -6 -6 -6 -6 -6 -6 -6 -6 -6 -6 -6 -7 -7 -7 -7 -7 -7 -7 -7 -7 -7 -8 -8 -8 -8 -8 -8 -8 -8 -8 -8
-9 -9 -8 -8 -8 -7 -7 -6 -6 -6 -7 -7 -7 -7 -7 -7 -6 -6 -6 -6 -7 -7 -6 -6 -6 -7 -7 -7 -7 -8 -8 -7 -7 -8 -8 -8 -8 -8 -9 -9 -8 -8 -8
-9 -9 -8 -8 -7 -7 -7 -7 -7 -7 -7 -7 -7 -7 -7 -7 -6 -6 -6 -7 -7 -7 -7 -7 -7 -7 -7 -7 -7 -7 -7 -8 -8 -8 -8 -8 -8 -8 -8 -9 -9 -9 -9
-9 -9 -8 -8 -7 -7 -7 -7 -7 -7 -7 -7 -7 -7 -7 -7 -7 -7 -7 -7 -7 -7 -7 -7 -7 -7 -7 -7 -7 -6 -7 -7 -7 -8 -8 -8 -8 -8 -8 -8 -8 -9 -9
-9 -8 -8 -7 -7 -7 -7 -7 -7 -7 -7 -7 -7 -7 -7 -7 -7 -7 -7 -7 -7 -7 -7 -7 -7 -7 -8 -8 -8 -8 -7 -7 -7 -8 -8 -8 -8 -8 -9 -9 -9 -9 -9
-8 -7 -7 -7 -7 -7 -7 -7 -7 -7 -7 -7 -7 -7 -7 -7 -7 -7 -7 -7 -7 -7 -7 -8 -7 -7 -7 -7 -8 -8 -8 -8 -8 -8 -8 -8 -8 -9 -9 -9 -9 -9 -10
-8 -8 -7 -7 -7 -7 -7 -8 -8 -7 -7 -7 -7 -7 -7 -7 -7 -7 -7 -8 -8 -8 -8 -8 -8 -8 -8 -8 -8 -8 -8 -8 -8 -8 -8 -8 -8 -8 -9 -9 -10 -10 -10
-7 -7 -7 -7 -7 -8 -8 -8 -7 -7 -7 -8 -8 -8 -8 -8 -8 -8 -8 -8 -8 -8 -8 -9 -9 -8 -8 -8 -8 -8 -8 -8 -8 -8 -9 -9 -9 -9 -9 -9 -10 -10 -10
-7 -7 -7 -7 -8 -8 -8 -8 -7 -8 -8 -8 -8 -8 -8 -8 -8 -8 -8 -8 -9 -9 -9 -9 -9 -9 -8 -8 -8 -8 -8 -8 -8 -8 -9 -9 -9 -9 -9 -9 -10 -10 -11
-7 -8 -8 -8 -8 -8 -8 -8 -8 -8 -8 -8 -8 -8 -8 -8 -8 -9 -9 -9 -9 -9 -9 -9 -9 -9 -9 -9 -9 -9 -9 -9 -9 -9 -9 -9 -9 -10 -10 -10 -10 -10 -11
-8 -8 -8 -8 -8 -8 -8 -8 -8 -8 -8 -8 -8 -8 -8 -8 -9 -9 -9 -10 -10 -10 -10 -10 -10 -10 -10 -10 -10 -10 -10 -10 -10 -10 -10 -10 -10 -10 -10 -10 -10 -10 -10
-8 -8 -8 -8 -8 -8 -8 -8 -8 -8 -8 -8 -8 -9 -9 -9 -10 -10 -10 -10 -10 -10 -10 -10 -10 -10 -11 -11 -11 -11 -11 -10 -10 -11 -11 -11 -11 -11 -11 -10 -11 -11 -11
-8 -8 -8 -8 -8 -8 -8 -8 -8 -9 -9 -9 -9 -9 -9 -10 -10 -10 -10 -11 -11 -11 -11 -11 -11 -11 -11 -12 -12 -12 -12 -12 -12 -12 -12 -12 -12 -12 -11 -11 -11 -11 -11
-8 -8 -8 -8 -8 -8 -8 -9 -9 -9 -9 -9 -9 -10 -10 -11 -11 -11 -11 -11 -11 -11 -11 -12 -12 -12 -12 -13 -13 -13 -13 -13 -13 -13 -13 -13 -12 -12 -12 -12 -12 -11 -11
Height
5930 5928 5925 5922 5921 5921 5926 5928 5930 5931 5931 5931 5932 5933 5933 5932 5931 5930 5928 5926 5925 5925 5924 5923 5922 5920 5920 5919 5919 5919 5920 5921 5919 5915 5913 5914 5915 5914 5913 5912 5912 5912 5911
5931 5928 5925 5922 5919 5919 5922 5925 5927 5928 5929 5930 5931 5930 5929 5929 5927 5926 5925 5923 5924 5925 5922 5920 5918 5916 5913 5913 5912 5913 5913 5915 5915 5913 5910 5910 5909 5909 5908 5908 5908 5907 5906
5931 5928 5926 5923 5922 5922 5922 5924 5926 5927 5928 5929 5928 5929 5927 5925 5923 5922 5920 5921 5921 5918 5916 5915 5911 5906 5904 5904 5898 5899 5903 5904 5906 5908 5905 5904 5905 5904 5903 5902 5902 5901 5900
5930 5928 5926 5923 5923 5924 5923 5923 5923 5925 5926 5927 5926 5925 5923 5922 5920 5916 5916 5916 5912 5909 5905 5906 5894 5894 5893 5892 5891 5888 5887 5892 5894 5898 5899 5897 5898 5900 5898 5898 5898 5897 5895
5928 5926 5926 5924 5922 5922 5922 5923 5923 5923 5923 5923 5922 5919 5917 5916 5915 5911 5907 5908 5912 5906 5901 5897 5900 5896 5892 5889 5887 5883 5881 5877 5880 5885 5889 5889 5889 5891 5892 5892 5891 5890 5888
5926 5924 5923 5923 5923 5922 5921 5920 5920 5921 5921 5920 5918 5917 5914 5913 5913 5910 5907 5904 5907 5904 5901 5895 5896 5897 5891 5888 5884 5880 5880 5874 5874 5876 5880 5880 5881 5883 5885 5884 5885 5885 5884
5923 5922 5921 5921 5921 5921 5920 5919 5919 5918 5917 5916 5915 5912 5909 5909 5908 5906 5906 5904 5901 5894 5899 5893 5894 5893 5889 5887 5882 5881 5879 5873 5870 5867 5869 5871 5872 5875 5879 5879 5878 5879 5878
5920 5919 5918 5919 5918 5918 5918 5917 5915 5915 5914 5912 5911 5909 5905 5905 5904 5902 5902 5900 5897 5896 5892 5890 5891 5886 5882 5883 5879 5877 5874 5871 5869 5863 5860 5860 5864 5865 5866 5868 5868 5871 5872
5917 5916 5916 5917 5916 5915 5915 5914 5913 5912 5910 5908 5907 5906 5902 5901 5900 5899 5897 5894 5891 5890 5888 5885 5883 5880 5878 5876 5874 5872 5869 5868 5866 5866 5860 5858 5859 5862 5863 5860 5862 5865 5865
5915 5914 5913 5913 5913 5912 5911 5910 5910 5909 5908 5905 5903 5901 5900 5896 5895 5893 5892 5890 5888 5887 5883 5880 5877 5876 5873 5872 5871 5869 5865 5865 5863 5861 5859 5857 5856 5857 5857 5858 5858 5859 5858
5912 5911 5910 5910 5909 5909 5908 5907 5907 5905 5903 5901 5898 5896 5895 5894 5891 5887 5884 5884 5883 5881 5878 5876 5872 5871 5868 5867 5864 5861 5859 5859 5857 5856 5856 5856 5854 5851 5852 5854 5855 5856 5855
5908 5906 5907 5906 5905 5905 5904 5903 5901 5899 5898 5896 5894 5891 5890 5888 5885 5882 5878 5874 5872 5869 5866 5864 5863 5861 5860 5858 5856 5854 5852 5851 5851 5849 5849 5849 5849 5849 5848 5847 5847 5848 5848
5904 5903 5902 5901 5900 5900 5900 5898 5897 5896 5894 5893 5890 5887 5885 5881 5878 5875 5872 5869 5867 5864 5861 5858 5855 5852 5850 5849 5848 5846 5844 5843 5842 5843 5842 5840 5840 5840 5840 5840 5839 5839 5840
5899 5898 5897 5897 5897 5896 5895 5894 5893 5892 5889 5887 5884 5882 5879 5874 5871 5868 5866 5862 5859 5856 5853 5850 5847 5844 5842 5840 5838 5836 5835 5834 5834 5833 5833 5833 5832 5830 5830 5829 5830 5829 5830
5893 5892 5893 5893 5892 5891 5890 5890 5888 5886 5884 5882 5880 5876 5872 5867 5864 5861 5858 5855 5852 5849 5845 5842 5838 5835 5833 5831 5829 5826 5825 5824 5823 5823 5823 5823 5822 5820 5819 5818 5819 5819 5821
5889 5888 5888 5888 5888 5887 5886 5885 5883 5880 5878 5875 5872 5868 5865 5861 5857 5854 5850 5846 5844 5840 5837 5834 5830 5827 5823 5820 5818 5817 5815 5813 5811 5811 5810 5810 5810 5810 5809 5808 5806 5806 5807
5882 5883 5884 5884 5883 5882 5879 5878 5876 5873 5869 5866 5863 5859 5855 5852 5849 5846 5841 5837 5834 5831 5828 5824 5821 5818 5815 5811 5808 5805 5804 5802 5800 5799 5798 5797 5796 5796 5796 5795 5796 5794 5794
5876 5877 5877 5877 5876 5876 5874 5872 5869 5865 5861 5858 5854 5850 5848 5844 5841 5837 5833 5829 5826 5822 5819 5816 5812 5809 5806 5803 5800 5797 5793 5791 5790 5788 5787 5786 5784 5783 5782 5781 5782 5783 5782
5870 5871 5869 5868 5868 5869 5868 5865 5861 5857 5854 5850 5846 5842 5839 5835 5832 5829 5825 5821 5818 5814 5810 5807 5803 5801 5798 5795 5792 5788 5786 5783 5780 5778 5775 5774 5772 5769 5768 5767 5767 5769 5769
5866 5865 5864 5863 5863 5862 5859 5855 5852 5849 5845 5842 5838 5834 5830 5827 5823 5819 5815 5812 5808 5805 5802 5798 5795 5792 5789 5786 5783 5779 5776 5773 5769 5766 5764 5761 5759 5756 5755 5754 5753 5753 5755
5861 5860 5860 5858 5855 5853 5850 5846 5842 5839 5836 5833 5829 5826 5823 5819 5815 5811 5807 5803 5799 5795 5792 5788 5785 5782 5778 5774 5770 5767 5763 5760 5757 5754 5750 5747 5745 5742 5740 5739 5739 5739 5740
5854 5853 5852 5850 5847 5844 5840 5837 5833 5830 5826 5823 5820 5817 5813 5810 5806 5802 5798 5794 5791 5787 5783 5779 5775 5771 5767 5762 5758 5754 5749 5746 5742 5738 5735 5732 5728 5726 5724 5723 5722 5722 5724
5845 5845 5843 5841 5837 5833 5830 5827 5823 5820 5816 5813 5810 5806 5803 5799 5795 5791 5787 5784 5780 5776 5772 5767 5763 5758 5753 5749 5745 5741 5737 5732 5727 5722 5719 5715 5712 5709 5707 5706 5705 5705 5706
5836 5835 5832 5830 5827 5823 5820 5816 5813 5810 5806 5804 5800 5797 5793 5789 5785 5781 5778 5774 5769 5765 5760 5756 5751 5746 5741 5735 5730 5724 5719 5715 5711 5706 5702 5699 5695 5692 5689 5688 5687 5688 5687
5827 5826 5824 5821 5817 5813 5809 5806 5803 5800 5797 5794 5790 5786 5783 5779 5775 5771 5767 5763 5759 5754 5748 5743 5738 5732 5726 5720 5713 5707 5702 5697 5693 5689 5685 5680 5677 5674 5671 5669 5669 5670 5669
5818 5816 5814 5811 5807 5803 5800 5796 5793 5790 5787 5783 5779 5775 5772 5768 5765 5760 5756 5751 5746 5740 5735 5729 5723 5717 5710 5704 5697 5691 5685 5679 5674 5669 5665 5662 5659 5654 5651 5650 5651 5651 5654
Wind_Speed
8 11 15 18 15 12 15 11 11 9 7 8 9 8 7 8 10 13 14 12 12 12 12 14 13 15 15 14 16 17 17 18 17 17 17 11 14 16 13 13 13 14 15
12 12 14 13 8 8 16 16 12 9 9 9 8 8 8 11 13 16 18 19 18 16 19 22 22 23 25 23 19 19 22 21 21 21 23 18 15 16 14 13 13 13 16
15 16 14 8 1 6 9 11 11 10 9 8 7 8 10 13 16 18 20 21 21 23 23 23 26 30 30 32 41 28 23 25 25 25 23 21 20 16 16 15 15 14 15
13 15 10 7 6 8 9 10 9 10 10 11 12 12 14 17 18 22 22 24 27 33 32 30 34 27 33 32 34 32 28 30 31 29 27 25 23 20 18 16 17 18 15
14 11 9 7 7 8 10 13 12 12 12 11 11 14 18 21 22 24 26 24 21 24 29 20 20 24 14 13 9 17 19 32 28 35 30 29 26 21 21 17 18 19 21
13 9 7 7 7 4 4 5 6 7 8 8 10 13 18 20 21 24 26 28 22 19 18 17 19 15 13 16 12 11 17 14 26 32 35 33 32 30 25 20 18 21 23
11 6 4 5 4 4 4 5 6 8 9 9 11 15 19 20 21 23 23 24 25 26 25 19 18 18 12 15 15 10 10 12 12 11 33 37 35 35 32 26 25 23 22
9 2 2 3 3 6 6 7 8 9 10 12 13 16 21 23 23 23 23 22 22 21 21 21 21 20 18 16 16 14 12 14 17 15 14 25 39 42 36 31 26 22 20
9 9 6 8 7 9 10 11 13 15 16 16 17 19 22 24 23 23 22 22 21 22 22 22 21 21 19 19 18 18 20 13 15 17 13 12 20 27 22 14 16 17 18
8 11 12 13 13 14 14 15 16 17 19 20 20 21 20 23 22 22 21 23 23 23 24 24 23 21 21 21 21 21 21 20 16 17 17 9 16 18 16 18 17 17 17
12 15 14 16 16 18 18 19 18 17 18 18 19 22 22 22 22 24 26 25 23 22 21 21 23 23 23 22 23 24 24 22 22 20 17 13 11 17 17 21 23 21 18
17 17 16 15 16 18 19 18 16 17 18 20 21 23 23 22 22 23 25 27 28 27 28 28 26 25 25 24 25 26 27 27 23 24 22 21 22 23 26 28 26 25 24
17 16 15 14 11 12 14 15 16 17 18 18 20 23 25 25 25 27 28 28 29 29 29 29 29 29 30 30 28 28 29 29 29 26 27 29 29 30 31 30 31 31 29
14 14 12 9 10 11 12 14 16 17 20 22 24 26 27 28 29 29 28 28 27 27 28 27 27 28 28 30 32 31 30 30 30 30 31 32 35 35 35 34 34 35 34
14 15 8 10 12 13 15 18 19 20 22 23 24 26 28 30 31 30 29 28 27 27 27 27 28 28 28 29 31 33 35 36 35 35 35 35 34 36 38 39 38 37 36
11 10 11 12 15 16 18 21 22 23 24 25 26 27 29 30 29 29 30 29 28 27 28 28 29 30 32 33 31 30 31 33 36 37 38 39 40 40 41 43 45 44 43
9 12 14 16 18 19 22 24 26 27 28 30 31 30 31 31 30 30 30 30 31 31 30 28 29 28 29 32 35 35 33 34 34 34 36 39 42 44 45 46 46 47 47
9 11 16 19 21 22 24 26 28 30 32 32 32 32 31 30 30 30 30 32 32 31 29 29 28 27 28 27 28 30 33 32 32 35 37 38 40 41 41 43 43 43 45
13 15 19 22 24 25 26 28 30 32 32 32 32 32 32 32 31 31 32 33 31 31 32 30 28 27 27 27 28 30 32 34 35 37 37 38 39 40 41 42 42 41 40
15 17 22 25 27 26 28 30 32 33 33 32 31 31 31 32 33 34 34 33 32 31 29 29 29 30 30 30 32 34 34 35 36 38 39 40 40 42 43 43 43 43 41
19 21 24 27 28 28 30 32 34 34 33 31 30 30 30 30 31 32 32 32 32 32 32 33 34 35 36 37 37 36 37 38 38 39 42 44 46 46 45 46 46 45 45
23 24 24 25 28 31 32 34 34 33 32 31 31 31 31 31 32 31 31 31 32 34 35 36 38 39 39 39 39 40 41 40 40 41 42 44 46 48 49 51 50 49 47
24 24 26 29 31 34 35 35 33 32 32 32 32 33 33 33 33 32 32 33 35 37 38 39 40 40 41 41 42 42 43 42 42 41 41 43 45 48 47 49 51 54 53
25 27 29 32 35 36 36 35 34 34 34 34 33 34 34 34 33 33 34 37 38 39 41 41 42 42 43 44 46 47 48 48 47 46 46 45 46 45 48 47 44 50 51
27 29 32 34 35 36 36 35 35 35 34 35 34 35 34 33 33 36 38 38 39 41 43 44 45 47 49 50 50 51 51 51 50 49 48 48 48 47 46 48 48 46 45
29 31 33 35 35 35 35 35 35 34 34 34 35 34 33 34 37 39 40 41 43 46 47 49 50 52 53 53 52 52 51 51 50 50 50 49 49 50 50 47 47 43 44
Wind_Direction
329 325 327 322 317 263 224 210 221 229 215 218 223 238 271 299 299 295 292 296 309 312 310 301 294 287 278 267 267 274 276 273 262 261 263 255 257 257 252 252 256 261 260
332 333 331 333 2 147 187 190 191 217 227 229 237 258 277 284 282 287 299 307 311 304 301 295 291 291 288 285 276 267 266 266 271 268 269 263 253 262 266 266 267 265 262
335 333 328 336 304 161 164 179 197 207 225 242 260 273 283 286 292 298 292 294 290 286 279 276 282 281 280 281 273 259 255 259 257 261 260 261 265 259 264 265 262 262 266
324 325 307 308 269 215 197 195 196 219 238 256 266 278 285 289 292 284 288 291 288 287 277 280 302 284 261 262 264 269 267 254 252 248 250 250 250 255 258 266 266 262 266
304 293 255 259 267 262 251 248 254 266 273 280 291 297 295 289 294 293 284 315 354 345 357 360 348 14 9 10 9 357 315 250 231 236 238 239 245 239 243 251 262 265 267
295 254 211 222 227 231 237 250 257 265 275 289 295 290 289 293 295 304 315 328 332 339 344 337 334 333 345 325 337 351 337 306 242 248 237 233 241 242 242 241 256 259 259
274 243 200 212 224 227 234 249 257 266 272 282 290 294 296 301 305 310 317 318 319 327 320 327 318 317 323 311 326 329 328 357 350 300 239 241 243 248 252 250 254 251 255
284 275 320 284 259 261 259 267 275 281 286 286 289 289 291 294 299 302 308 311 313 312 317 315 311 313 317 313 308 311 310 315 320 330 294 242 239 246 244 253 248 243 248
300 315 287 265 277 282 286 291 293 290 292 295 294 291 291 296 302 308 312 313 313 315 316 315 312 313 305 303 299 300 299 298 303 310 323 252 239 241 238 209 232 245 258
297 299 304 290 277 280 286 297 295 292 288 288 293 292 299 304 305 304 303 301 301 304 305 303 302 303 302 299 292 284 282 285 285 293 309 298 229 226 233 240 235 243 251
282 288 282 278 282 283 281 281 284 292 299 298 303 307 307 302 305 306 307 306 304 303 298 294 294 291 287 289 290 288 283 277 272 272 274 272 244 224 226 238 252 249 262
273 279 284 279 271 272 280 288 299 308 304 309 308 302 303 307 307 305 303 304 306 305 303 300 295 292 288 286 283 283 283 284 275 268 265 261 253 251 253 253 257 265 267
271 282 284 278 281 286 293 301 304 302 304 305 300 301 306 308 306 304 303 302 302 303 301 297 294 292 291 289 283 279 277 279 279 273 267 265 260 259 264 269 269 271 272
266 276 281 289 286 295 301 302 302 307 307 306 309 308 305 303 302 303 305 305 303 300 300 299 295 290 287 283 282 281 277 275 275 276 271 265 267 267 267 266 267 269 271
251 249 273 293 299 304 305 306 306 305 302 305 306 302 301 300 304 309 308 305 301 299 297 297 297 296 291 285 281 278 278 276 273 270 270 271 269 269 270 270 269 265 264
246 277 272 279 288 297 299 298 298 301 306 309 306 304 304 305 307 307 304 303 303 302 301 298 294 291 290 290 288 284 279 276 274 272 269 267 267 267 266 268 271 271 270
233 266 278 285 290 293 295 297 303 305 307 307 310 310 306 307 309 307 306 307 307 304 300 299 297 292 288 287 288 287 282 280 280 277 273 270 270 270 268 266 265 267 269
276 284 291 290 291 293 297 303 304 303 304 311 310 305 307 307 306 306 306 306 305 302 300 300 300 297 297 296 291 286 286 288 285 283 283 282 281 278 274 271 268 264 264
298 299 293 294 296 298 302 302 300 302 307 306 304 305 306 306 306 307 307 305 302 300 300 299 299 299 299 296 295 294 292 289 287 285 284 282 281 279 277 276 274 270 265
299 295 292 292 295 301 301 299 300 304 305 304 304 304 304 305 306 307 307 305 303 303 302 300 297 295 299 298 296 295 293 290 288 288 287 284 282 279 278 276 273 270 268
291 290 291 295 298 300 299 300 304 306 305 304 302 301 301 301 303 304 304 303 302 302 301 301 300 298 296 295 292 290 288 286 284 284 284 281 279 277 276 275 272 270 267
293 293 295 298 299 299 300 303 303 302 301 301 300 300 301 301 304 304 303 302 301 302 302 302 301 300 299 296 295 293 290 287 287 284 284 280 276 274 273 270 270 268 266
293 297 301 301 302 303 303 302 302 302 302 301 302 302 302 304 304 303 302 302 303 304 304 303 303 302 301 299 297 295 294 293 291 289 289 288 284 277 273 267 266 266 265
296 302 304 304 304 304 304 304 303 302 302 301 300 300 301 301 300 300 302 304 305 305 305 305 305 306 305 304 303 301 298 296 295 295 293 291 286 283 274 268 267 270 265
296 300 303 304 304 305 305 304 302 301 299 298 298 297 298 297 298 302 304 305 306 307 307 307 307 307 307 307 305 303 301 299 296 294 291 288 288 285 281 266 268 261 261
294 301 304 305 305 303 302 300 298 297 296 296 296 297 297 298 302 305 306 307 308 308 308 307 307 307 307 307 305 303 301 298 295 293 291 288 285 287 283 275 261 252 255